Find Starlink 5361

NORAD ID: 57142 Int'l Des: 2023-090 Owner: SPXS Country: US Constellation: starlink operational
LEOCIRCULAR

Aktuelle Ansicht

3D-Globus wird geladen...

Über Starlink 5361

Beschreibung wird geladen...

Nächste Überflüge

Passes for default location (London). Set your location on the main map for personalized predictions.

Höhenverlauf

Loading altitude history...

Zweizeiliger Elementsatz

1 57142U 23090AT 26151.05976762 -.00000217 00000-0 16380-5 0 9994
2 57142 43.0009 157.9109 0000509 246.6664 113.4134 15.27573697162959
Epoch: 31. Mai 2026 • Age: 20 hours

Aktueller Status

Höhe 495.8 km
Geschwindigkeit 7.62 km/s
Subsatellitenpunkt -42.43°S, 135.61°W
Startdatum 23. Juni 2023
Alter 2.9 years
Typ internet

Technische Details

Klassifizierung Payload
Masse 305.00 kg
Trockenmasse 290.00 kg
Gesamtmasse 305.00 kg
Länge 0.20 m
Durchmesser 2.80 m
Spannweite 9.00 m
Form Box + pan
Hersteller SPXS
Bus-Typ Starlink
Phasenstatus In Orbit
Besitzer/Staat SPXS/US

Most Searched